BARLOW-WX Weather Reports


time (UTC)temp
C
wind
direction
speed
KPH
gust
KPH
rain 1hr
cm
rain 24hr
cm
rain mn
cm
humidity
%
barometer
mb
20260901150112 27 246 9.7 0.0 0.00 0.00 0.00 81 986.5
20260901144611 26 255 9.7 0.0 0.00 0.00 0.00 86 985.7
20260901143118 26 257 9.7 0.0 0.00 0.00 0.00 84 986.9
20260901141619 26 247 8.0 0.0 0.00 0.00 0.00 81 987.5
20260901140118 25 249 8.0 0.0 0.00 0.00 0.00 81 987.5
20260901134620 25 243 6.4 0.0 0.00 0.00 0.00 87 986.7
20260901133118 24 232 9.7 0.0 0.00 0.00 0.00 87 986.7
20260901131617 23 213 9.7 0.0 0.00 0.00 0.00 87 986.7
20260901130126 23 205 11.3 0.0 0.00 0.00 0.00 87 986.7
20260901124642 22 203 8.0 0.0 0.00 0.00 0.00 89 986.2
20260901123119 21 196 8.0 0.0 0.00 0.00 0.00 91 986.1
20260901121617 21 201 6.4 0.0 0.00 0.00 0.00 91 986.1
20260901120126 20 196 4.8 0.0 0.00 0.00 0.00 91 986.1
20260901114618 20 196 4.8 0.0 0.00 0.00 0.00 89 985.2
20260901113123 20 197 4.8 0.0 0.00 0.00 0.00 89 985.7
20260901111618 20 199 6.4 0.0 0.00 0.00 0.00 89 985.7
20260901110122 20 195 6.4 0.0 0.00 0.00 0.00 89 985.7
20260901104621 20 196 6.4 0.0 0.00 0.00 0.00 88 986.1
20260901103123 20 190 6.4 0.0 0.00 0.00 0.00 88 986.1
20260901101625 20 198 8.0 0.0 0.00 0.00 0.00 88 986.1
20260901100126 20 189 8.0 0.0 0.00 0.00 0.00 88 986.1
20260901094617 20 196 6.4 0.0 0.00 0.00 0.00 89 985.0
20260901093123 20 198 8.0 0.0 0.00 0.00 0.00 89 985.4
20260901091625 20 207 6.4 0.0 0.00 0.00 0.00 89 985.3
20260901090123 20 203 8.0 0.0 0.00 0.00 0.00 89 985.3
20260901084617 20 215 8.0 0.0 0.00 0.00 0.00 88 985.0
20260901083122 21 219 8.0 0.0 0.00 0.00 0.00 87 984.5
20260901081624 21 218 9.7 0.0 0.00 0.00 0.00 87 984.5
20260901080119 21 209 8.0 0.0 0.00 0.00 0.00 87 985.0
20260901074623 21 204 9.7 0.0 0.00 0.00 0.00 89 984.7
20260901073122 21 207 8.0 0.0 0.00 0.00 0.00 89 984.7
20260901071617 21 202 6.4 0.0 0.00 0.00 0.00 89 984.7
20260901070117 21 207 6.4 0.0 0.00 0.00 0.00 89 984.7
20260901064624 21 209 8.0 0.0 0.00 0.00 0.00 89 985.0
20260901063111 21 218 8.0 0.0 0.00 0.00 0.00 89 984.9
20260901061618 21 215 6.4 0.0 0.00 0.00 0.00 89 984.9
20260901060123 21 225 6.4 0.0 0.00 0.00 0.00 89 984.9
20260901054622 21 223 6.4 0.0 0.00 0.00 0.00 87 985.3
20260901053123 21 211 6.4 0.0 0.00 0.00 0.00 90 984.9
20260901051617 22 226 9.7 0.0 0.00 0.00 0.00 90 984.9
20260901050128 22 230 9.7 0.0 0.00 0.00 0.00 90 984.9
20260901044622 22 224 9.7 0.0 0.00 0.00 0.00 88 985.2
20260901043117 22 216 9.7 0.0 0.00 0.00 0.00 89 984.9
20260901041621 22 211 9.7 0.0 0.00 0.00 0.00 89 984.9
20260901040126 22 222 9.7 0.0 0.00 0.00 0.00 89 984.9
20260901034621 22 229 6.4 0.0 0.00 0.00 0.00 85 984.9
20260901033121 22 227 8.0 0.0 0.00 0.00 0.00 85 985.0
20260901031621 23 217 12.9 0.0 0.00 0.00 0.00 85 985.1
20260901030122 23 227 11.3 0.0 0.00 0.00 0.00 85 985.1
20260901024621 23 209 12.9 0.0 0.00 0.00 0.00 83 986.2
20260901023121 23 207 12.9 0.0 0.00 0.00 0.00 85 985.8
20260901021619 22 207 12.9 0.0 0.00 0.00 0.00 85 985.7
20260901020126 22 213 11.3 0.0 0.00 0.00 0.00 85 985.7
20260901014620 22 216 9.7 0.0 0.00 0.00 0.00 85 985.6
20260901013118 22 205 9.7 0.0 0.00 0.00 0.00 85 985.6
20260901011620 22 223 8.0 0.0 0.00 0.00 0.00 85 985.5
20260901010123 22 214 8.0 0.0 0.00 0.00 0.00 85 985.5
20260901004620 22 208 9.7 0.0 0.00 0.00 0.00 82 985.5
20260901003119 23 242 4.8 0.0 0.00 0.00 0.00 79 985.1
20260901001620 23 214 8.0 0.0 0.00 0.00 0.00 79 985.2
20260901000117 24 219 9.7 0.0 0.00 0.00 0.00 79 985.2
20260831234622 25 221 9.7 0.0 0.00 0.05 0.05 74 985.0
20260831233121 25 221 6.4 0.0 0.00 0.05 0.05 68 985.0
20260831231622 25 206 14.5 0.0 0.00 0.05 0.05 68 985.1
20260831230124 26 202 16.1 0.0 0.00 0.05 0.05 68 985.1
20260831224621 27 200 16.1 0.0 0.00 0.05 0.05 65 985.5
20260831223123 27 212 16.1 0.0 0.00 0.05 0.05 60 985.9
20260831221618 27 212 17.7 0.0 0.00 0.05 0.05 60 985.9
20260831220122 27 209 19.3 0.0 0.00 0.05 0.05 60 985.9
20260831214621 27 204 17.7 0.0 0.00 0.05 0.05 65 986.4
20260831213119 27 202 17.7 0.0 0.00 0.05 0.05 59 986.0
20260831211620 28 203 20.9 0.0 0.00 0.05 0.05 59 986.2
20260831210121 28 207 17.7 0.0 0.00 0.05 0.05 59 986.2
20260831204619 28 201 17.7 0.0 0.03 0.05 0.05 63 987.3
20260831203119 28 197 17.7 0.0 0.03 0.05 0.05 81 986.9
20260831201620 26 188 11.3 0.0 0.03 0.05 0.05 81 986.6
20260831200121 25 192 11.3 0.0 0.03 0.05 0.05 75 987.2
20260831194621 25 213 14.5 0.0 0.03 0.03 0.03 67 987.4
20260831193120 25 220 16.1 0.0 0.03 0.03 0.03 67 987.4
20260831191620 27 198 6.4 0.0 0.08 0.08 0.08 67 987.5
20260831190122 28 208 16.1 0.0 0.08 0.08 0.08 62 986.9
20260831184618 28 194 17.7 0.0 0.00 0.00 0.00 67 987.4
20260831183119 28 189 17.7 0.0 0.00 0.00 0.00 67 987.5
20260831181619 28 197 17.7 0.0 0.00 0.00 0.00 67 987.5
20260831180120 28 195 17.7 0.0 0.00 0.00 0.00 67 987.5
20260831174619 27 199 19.3 0.0 0.00 0.00 0.00 65 988.2
20260831173119 28 204 17.7 0.0 0.00 0.00 0.00 64 987.1
20260831171619 27 204 19.3 0.0 0.00 0.00 0.00 64 987.1
20260831170120 27 202 17.7 0.0 0.00 0.00 0.00 64 987.1
20260831164619 27 195 16.1 0.0 0.00 0.00 0.00 74 988.9
20260831163332 -17 0 0.0 0.0 0.00 0.00 0.00 100
20260831161947 -17 0 0.0 0.0 0.00 0.00 0.00 100
20260831160119 26 208 20.9 0.0 0.00 0.00 0.00 62 987.5
20260831154618 26 206 19.3 0.0 0.00 0.00 0.00 74 989.0
20260831153118 25 203 17.7 0.0 0.00 0.00 0.00 74 988.3
20260831151618 26 234 19.3 0.0 0.00 0.00 0.00 74 988.4